User: anonymous   Login
Location: Holcomb Observatory
(44.4922°N, 73.1654°W)
Time: 14:55:23
(UTC-05:00)
Language:

SL-16 R/B - Orbit

View from above orbital plane
View from above orbital plane
View from above satellite
View from above satellite

Ground track
Ground track

The orbit data is extracted from the following two-line orbital elements,

1 27006U 01056F   18055.95877300 -.00000050 +00000-0 -79766-5 0  9992
2 27006 099.3477 194.8378 0014773 014.9409 090.1974 13.70967162811041
Epoch (UTC): 24 February 2018 23:00:37
Eccentricity: 0.0014773
inclination: 99.3477°
perigee height: 985 km
apogee height: 1007 km
right ascension of ascending node: 194.8378°
argument of perigee: 14.9409°
revolutions per day: 13.70967162
mean anomaly at epoch: 90.1974°
orbit number at epoch: 81104

The dashed part of the orbit path shows where the satellite is in the earth's shadow,  

DLR